Wind_Speed
54 58 62 71 70 55 39 7 4 2 3 4 2 3 5 5 5 3 3 4 4 4 5 4 2 3 3 3 2 2 5 4 0 2 5 5 1 2 2 4 4 1 3 3
60 65 64 73 67 54 23 4 3 5 4 4 2 3 3 4 4 4 4 4 3 3 4 4 5 4 2 2 2 3 2 2 3 5 4 5 4 5 2 2 3 1 3 4
67 67 72 72 66 47 27 5 4 2 3 1 4 5 5 4 5 3 3 5 6 5 3 2 5 3 3 2 1 6 4 3 6 5 6 3 3 6 5 3 3 2 3 5
66 68 74 71 61 51 25 3 4 5 6 6 4 5 6 8 6 4 5 3 5 7 4 3 4 4 2 3 2 4 4 1 4 6 7 3 2 2 4 4 4 4 5 4
65 71 72 67 61 48 9 5 5 3 4 11 6 5 8 10 5 6 5 7 8 5 4 6 4 6 3 2 4 3 2 3 2 4 5 6 2 4 1 2 2 2 3 6
69 71 70 66 58 45 8 5 8 6 10 9 6 6 8 12 8 3 7 10 6 6 6 6 6 6 4 3 3 1 2 1 2 2 8 3 3 6 4 4 3 3 2 8
68 69 70 66 57 42 15 10 8 4 4 7 11 10 10 13 6 7 9 7 6 4 7 5 5 5 3 3 6 5 1 1 1 1 6 3 5 6 5 5 3 4 5 5
70 64 52 52 49 30 26 24 5 3 4 6 8 10 10 11 5 4 6 2 6 10 6 4 4 4 4 3 6 6 7 3 1 2 2 4 0 3 5 6 6 4 3 5
64 58 57 52 44 26 27 15 14 6 6 9 12 13 16 8 5 4 3 4 9 7 3 3 3 3 4 2 3 4 6 4 4 1 1 4 5 2 4 4 4 5 8 7
60 52 55 48 40 34 31 11 16 8 4 3 14 8 15 8 5 5 3 4 3 4 2 2 3 3 4 3 4 4 2 1 4 2 2 6 4 2 5 4 7 3 6 6
55 53 53 44 39 35 25 13 10 11 3 3 5 6 7 5 5 5 6 4 3 3 3 3 3 3 3 2 3 4 5 3 3 2 3 5 4 1 4 7 4 4 4 5
50 56 47 40 34 30 25 11 9 14 8 3 22 19 11 11 11 6 0 5 5 5 4 1 3 1 2 4 2 1 2 6 4 7 5 7 5 7 6 5 4 2 6 6
56 50 42 37 33 28 30 14 27 29 5 6 8 5 17 16 17 27 4 1 5 2 4 4 2 2 4 3 4 3 4 4 3 3 5 7 8 5 5 5 4 3 3 4
54 48 44 38 33 24 26 23 21 20 8 4 3 5 7 12 21 14 8 13 8 8 3 3 2 2 3 4 4 4 5 4 5 4 6 4 2 5 7 6 3 6 6 3
51 45 41 35 24 28 32 23 14 18 10 4 2 4 10 14 20 21 20 21 6 2 3 2 3 2 2 1 1 4 4 6 4 5 8 5 5 8 6 6 5 7 5 5
49 45 37 30 34 37 35 5 14 17 18 4 3 2 2 12 20 20 16 13 3 2 4 3 2 2 3 2 3 6 4 3 5 4 5 8 8 6 7 7 8 7 13 12
38 31 33 32 30 25 9 5 14 19 17 4 3 2 3 7 5 4 5 5 2 3 2 1 3 1 3 2 4 5 6 7 7 6 4 2 6 5 11 12 13 18 17 15
31 33 31 27 26 22 12 17 14 14 9 6 4 2 2 3 2 2 2 2 3 3 2 1 2 2 2 4 7 5 6 7 5 4 4 5 7 10 7 19 17 9 6 9
36 34 31 25 10 5 6 15 14 10 4 4 3 5 4 2 2 2 3 2 1 1 2 2 4 3 5 6 7 5 5 4 6 5 6 6 6 7 7 9 7 8 5 7
35 30 10 3 3 18 12 4 4 4 4 3 3 3 3 4 2 1 3 1 3 1 4 2 3 4 6 7 8 7 6 7 7 5 4 6 6 9 7 6 9 9 8 7
17 4 2 9 11 5 5 2 3 1 1 0 3 4 7 1 4 3 2 3 2 2 4 5 3 3 5 8 8 6 8 6 5 7 7 12 13 9 7 6 10 11 10 5
10 18 14 5 3 3 4 2 1 4 6 2 5 4 5 3 4 3 2 3 2 4 2 2 3 4 3 6 7 7 8 6 5 16 14 17 18 18 15 11 11 10 8 7
23 6 4 3 1 4 7 7 4 3 5 5 5 7 4 3 3 3 3 3 4 2 2 4 4 3 5 6 6 6 10 11 12 10 15 16 16 15 14 11 11 12 10 8
3 4 4 4 3 5 5 4 5 4 5 11 8 3 3 2 3 3 4 4 3 1 2 5 3 6 7 6 6 7 7 9 9 10 13 15 16 14 13 14 14 16 15 12
3 4 4 6 4 3 3 4 3 3 9 7 5 4 3 1 3 2 3 3 4 5 5 3 4 7 7 7 6 7 7 8 8 8 7 8 11 10 13 15 15 16 13 12
1 2 2 2 3 3 3 3 4 1 6 4 4 3 3 3 4 3 6 5 6 4 4 4 3 8 7 7 7 10 14 14 10 10 9 9 10 11 11 10 13 16 15 14
2 2 1 3 3 3 2 2 2 5 6 4 3 5 7 2 3 3 4 5 4 4 3 3 5 7 7 8 10 11 12 11 10 9 9 9 9 9 9 10 15 17 18 17
Wind_Direction
179 175 172 164 154 150 146 104 92 119 55 77 70 154 197 194 118 99 94 120 129 147 134 127 166 139 134 65 76 143 200 139 280 302 289 279 50 235 123 107 294 71 156 276
176 167 164 159 160 155 136 86 100 30 360 137 217 255 243 149 134 143 155 143 130 121 123 113 135 116 139 75 117 137 159 10 22 325 346 348 358 332 309 138 68 197 122 271
169 166 165 162 160 159 128 111 110 12 32 44 166 164 181 126 131 138 116 110 97 102 98 121 156 119 171 207 98 136 98 83 154 193 226 176 339 331 334 95 88 274 212 288
173 169 165 165 163 159 146 82 165 177 176 214 207 162 155 144 156 166 120 98 142 132 128 142 136 125 108 209 46 140 110 174 187 251 236 122 208 263 354 71 211 130 250 212
177 174 173 166 165 164 108 123 134 115 159 136 155 180 190 165 152 137 161 143 136 128 145 188 141 128 127 106 34 120 152 283 326 279 150 168 236 227 175 335 264 325 271 291
170 171 165 166 167 168 107 122 125 113 158 144 136 196 163 172 131 108 146 133 109 117 175 123 115 100 133 139 122 79 66 65 345 352 130 156 280 232 217 231 218 179 221 238
171 170 167 169 171 177 157 148 122 112 159 162 182 151 150 154 142 136 134 120 110 196 137 91 60 58 28 324 280 158 205 318 164 193 157 251 239 167 183 206 204 236 251 301
171 167 164 168 173 172 162 154 131 120 98 166 161 164 140 140 130 98 121 75 146 152 67 71 62 360 11 275 235 239 184 138 359 117 214 287 7 203 196 183 259 231 247 302
166 166 168 169 174 170 166 158 129 101 116 211 165 158 156 149 136 64 96 46 136 75 94 87 118 186 213 230 262 234 116 90 127 113 173 239 230 212 169 106 291 241 207 239
161 160 166 168 171 174 160 119 139 102 104 221 154 161 157 138 110 109 121 134 62 72 91 100 133 240 186 167 191 160 139 336 172 153 209 287 234 178 108 107 240 251 183 195
159 160 164 161 164 159 154 132 126 152 109 62 140 136 143 125 119 141 185 83 342 49 85 111 204 145 231 68 236 183 172 160 225 86 65 297 224 332 174 217 239 219 171 192
158 161 158 158 152 153 145 119 165 132 82 145 98 90 121 147 145 126 286 164 160 175 97 122 112 92 69 162 246 277 209 181 192 171 213 225 229 205 228 182 202 196 167 209
156 152 150 148 145 144 155 147 124 106 110 52 46 41 71 153 165 160 122 316 147 179 178 156 161 147 125 168 241 204 266 162 192 87 249 231 245 242 199 175 163 182 208 172
151 149 147 145 143 152 177 141 144 124 107 98 320 38 49 111 158 163 140 127 103 115 76 90 121 153 175 203 213 176 207 127 189 252 287 266 269 182 160 175 144 98 116 144
143 142 138 127 149 164 148 132 133 141 113 141 131 43 48 111 139 133 138 127 100 93 72 89 195 213 116 257 56 243 191 196 169 225 231 178 235 189 180 147 125 143 153 75
134 132 132 150 142 141 133 64 98 113 117 94 110 307 36 110 116 114 113 109 81 96 129 202 230 253 114 170 234 256 206 182 193 242 218 184 182 181 153 138 163 129 101 102
138 135 144 142 146 145 88 137 131 126 107 89 81 55 281 129 84 55 63 63 99 111 137 147 166 267 115 176 225 245 267 296 289 252 171 146 156 174 166 155 118 108 101 96
124 135 137 132 130 105 81 111 131 138 96 90 115 168 71 122 57 70 67 69 24 0 173 36 157 0 106 254 244 256 258 239 208 110 126 182 149 151 140 123 120 105 110 118
133 130 127 115 86 73 108 95 104 85 100 126 121 135 186 128 131 113 37 99 82 316 177 231 117 207 220 227 223 228 243 164 149 91 71 121 152 110 109 116 110 115 128 112
134 123 79 49 94 121 107 71 27 21 341 53 108 124 165 124 143 65 99 31 186 184 235 111 195 248 234 221 214 213 216 209 170 146 159 119 112 136 146 148 149 147 147 132
129 77 85 120 116 85 38 58 100 295 8 203 150 137 133 298 107 135 181 175 169 174 256 150 248 271 242 209 192 185 169 178 188 204 183 151 150 149 145 150 155 156 158 166
133 115 113 96 62 55 105 191 225 196 203 172 126 154 145 164 115 111 212 157 97 228 148 94 262 248 244 140 152 156 159 138 123 150 142 145 150 156 159 165 176 182 187 177
119 76 78 115 299 53 173 190 207 179 170 167 142 137 133 68 60 70 121 123 208 80 90 223 227 256 176 161 144 141 134 125 121 142 152 157 158 162 165 179 199 200 199 203
91 132 140 161 214 229 196 177 175 205 126 134 132 100 115 129 81 147 113 216 112 186 236 236 237 205 185 174 154 136 158 138 137 153 160 167 175 189 199 209 213 208 213 214
138 125 175 201 211 209 203 185 101 80 135 127 94 56 90 54 103 181 133 141 228 209 226 226 220 180 165 168 158 160 165 172 169 166 162 188 206 210 222 229 228 223 224 216
67 125 100 279 87 330 37 70 100 134 132 89 72 118 94 186 150 145 200 181 218 241 211 229 173 153 164 166 169 177 185 190 194 200 210 218 220 222 239 256 239 234 229 230
127 256 29 119 108 144 179 105 140 149 123 152 119 112 194 109 139 206 191 208 217 210 221 183 166 152 162 165 167 171 174 179 191 205 217 226 238 239 239 241 252 240 235 238
Height
709 719 723 732 748 763 774 790 819 821 822 837 842 842 837 823 827 829 834 838 841 849 851 856 860 863 861 856 860 869 876 905 899 876 865 863 866 900 906 897 891 895 902 889
706 714 722 732 743 755 769 800 823 825 826 841 851 839 828 824 829 831 836 837 838 843 852 868 858 860 857 857 861 867 870 901 921 880 876 871 876 877 879 900 908 912 915 899
704 712 719 730 742 751 760 796 827 833 833 833 834 833 828 828 826 829 831 837 840 846 852 854 860 859 858 857 858 862 866 895 897 906 887 889 900 881 881 896 917 913 923 907
701 710 716 729 739 748 760 786 810 812 832 834 831 826 825 828 830 828 831 840 842 850 868 854 854 855 859 859 858 863 870 891 883 873 867 873 881 881 885 906 905 909 901 908
698 708 716 730 738 745 756 783 795 808 818 820 831 828 828 823 823 829 834 841 843 852 867 859 865 857 858 860 860 861 870 878 869 868 862 869 876 877 880 883 890 903 897 897
697 708 718 726 736 743 755 770 779 787 809 817 826 824 817 818 823 826 830 838 849 855 851 848 851 853 857 857 859 865 868 880 880 870 874 878 881 880 875 879 887 887 896 886
697 707 716 727 736 745 752 761 767 789 809 808 807 807 809 817 822 828 832 836 843 846 845 847 851 854 855 857 860 863 869 875 883 880 879 899 872 866 869 873 868 871 869 866
696 708 718 729 739 747 753 758 763 780 800 799 804 807 810 817 821 828 832 835 837 841 846 866 865 873 862 856 856 858 864 878 886 898 881 867 863 862 869 870 871 861 859 860
698 711 719 728 740 746 755 760 761 768 793 799 790 803 807 821 831 837 837 839 840 842 859 871 866 872 862 858 853 848 860 869 894 890 890 886 867 851 851 859 883 855 857 856
701 711 722 733 742 751 754 759 761 767 789 787 788 799 803 814 827 842 843 840 844 845 872 876 873 871 855 868 860 861 874 880 901 934 920 879 851 847 851 878 879 849 850 853
703 713 724 733 742 747 753 760 762 769 785 788 788 793 802 811 820 834 837 847 853 861 871 873 876 878 872 868 856 857 868 886 902 900 920 898 848 848 855 859 849 844 847 848
706 715 726 735 741 748 753 761 769 770 778 792 790 795 799 802 808 824 833 836 842 849 863 872 873 868 881 872 882 853 869 866 876 873 880 854 846 845 842 844 845 842 845 845
708 717 728 736 744 751 757 765 768 771 786 794 798 804 804 804 809 814 829 834 833 838 838 854 865 855 870 876 873 857 847 846 862 859 843 844 840 839 838 839 839 840 841 842
711 722 731 739 745 752 760 764 767 770 783 808 813 806 807 809 811 815 816 820 827 832 836 851 857 860 855 862 854 856 852 844 846 848 842 836 833 835 836 837 836 838 840 841
716 725 735 740 752 757 761 766 770 771 778 810 815 810 813 813 812 815 817 820 828 838 845 852 854 855 853 854 853 853 839 840 851 850 834 834 835 832 831 834 837 838 839 841
721 730 738 749 754 755 759 770 775 775 777 798 822 817 818 817 816 818 821 825 831 837 841 848 846 841 847 855 856 834 829 828 829 830 823 826 826 828 829 833 835 837 839 840
729 736 745 749 754 757 762 772 775 778 781 799 823 827 820 819 819 823 826 829 833 836 842 844 845 843 846 854 848 828 823 823 823 822 822 825 825 829 828 829 834 836 839 841
732 742 747 753 757 763 768 773 777 780 784 795 821 826 825 818 829 832 829 836 837 837 841 843 843 844 847 845 827 823 821 819 821 818 818 820 821 825 828 831 834 838 841 843
740 745 751 756 763 770 775 777 779 781 787 804 811 819 831 819 827 831 834 836 848 841 842 843 843 844 840 824 821 819 817 816 818 818 818 820 823 827 830 832 835 837 840 840
743 749 754 770 770 773 776 782 785 787 790 793 804 809 820 818 826 836 840 840 844 846 837 835 838 832 817 813 812 812 814 815 814 817 819 823 826 828 831 832 833 835 837 838
745 754 766 770 772 776 784 798 801 802 799 796 800 805 808 814 824 831 834 842 842 844 835 834 832 829 810 803 807 808 810 811 812 812 813 815 820 826 829 832 832 834 835 836
745 752 766 771 778 787 792 802 797 794 790 792 796 802 805 811 814 825 833 829 837 831 832 841 837 814 800 801 804 806 808 809 810 811 814 817 820 823 826 828 830 831 832 834
751 757 768 777 786 802 792 804 787 797 784 787 788 800 804 809 814 827 827 833 841 829 843 835 820 807 800 801 803 805 806 808 811 813 815 817 819 821 823 826 827 829 830 831
755 767 779 779 793 780 772 773 772 769 773 775 785 800 804 813 818 826 826 825 826 836 848 816 808 798 799 799 800 804 807 808 811 813 815 816 818 819 820 822 823 825 826 827
756 760 776 769 762 764 762 763 762 765 767 776 789 800 805 817 820 820 821 825 830 821 813 811 795 792 795 798 800 803 805 807 810 812 813 815 816 817 818 819 821 822 823 824
753 754 762 761 761 767 763 763 764 766 771 778 787 800 811 811 812 814 822 814 819 809 800 792 789 789 792 795 797 799 802 805 807 809 811 812 814 815 815 816 817 818 820 820
754 762 757 757 760 763 766 762 764 765 770 788 792 803 799 808 812 815 807 806 799 792 789 786 785 787 790 792 795 798 800 803 805 806 808 809 810 811 812 813 812 813 814 815